Weather History for Poplar Bluff, MO

Change the Weather History Date:

Monday, March 18, 2013

  Actual Average Record
Temperature  
Mean Temperature 48 °F -  
Max Temperature 55 °F 60 °F 79 °F (2012)
Min Temperature 41 °F 38 °F 19 °F (1941)
Degree Days  
Heating Degree Days 17    
Moisture  
Dew Point 39 °F    
Average Humidity 80    
Maximum Humidity 93    
Minimum Humidity 52    
Precipitation  
Precipitation 0.70 in - - ()
Sea Level Pressure  
Sea Level Pressure 29.77 in    
Wind  
Wind Speed 9 mph (NW)    
Max Wind Speed 16 mph    
Max Gust Speed 23 mph    
Visibility 9 miles    
Events Rain , Thunderstorm    
Averages and records for this station are not official NWS values.
T = Trace of Precipitation, MM = Missing Value Source: NWS Daily Summary

Daily Weather History Graph

Daily Weather History Graph

Search for Another Location

Airport:

Trip Planner

Search our weather history database for the weather conditions in past years. The results will help you decide how hot, cold, wet, or windy it might be!

Date:

Astronomy

Mar. 18, 2013 Rise Set
Actual Time 7:07 AM CDT 7:11 PM CDT
Civil Twilight 6:41 AM CDT 7:37 PM CDT
Nautical Twilight 6:11 AM CDT 8:07 PM CDT
Astronomical Twilight 5:41 AM CDT 8:38 PM CDT
Moon 11:15 AM CDT (3/18) 1:02 AM CDT (3/18)
Length of Visible Light 12h 55m
Length of Day
12h 04m
Waxing Crescent, 41% of the Moon is Illuminated
Mar 18
Waxing Crescent
Mar 19
First Quarter
Mar 27
Full
Apr 2
Last Quarter
Apr 10
New

Hourly Weather History & Observations

Time (CDT) Temp. Windchill Dew Point Humidity Pressure Visibility Wind Dir Wind Speed Gust Speed Precip Events Conditions
12:10 AM 42.8 °F 36.6 °F 39.2 °F 87% 29.74 in 10.0 mi NNE 11.5 mph 18.4 mph 0.05 in Rain , Thunderstorm Light Rain
12:13 AM 42.8 °F 35.8 °F 39.2 °F 87% 29.73 in 10.0 mi NNE 13.8 mph - 0.05 in Rain Light Rain
12:46 AM 42.8 °F 36.6 °F 39.2 °F 87% 29.73 in 9.0 mi North 11.5 mph - 0.06 in Rain , Thunderstorm Light Rain
12:53 AM 42.1 °F 34.9 °F 39.0 °F 89% 29.73 in 4.0 mi NNE 13.8 mph - 0.08 in Rain , Thunderstorm Heavy Thunderstorms and Rain
1:02 AM 41.0 °F 34.3 °F 37.4 °F 87% 29.72 in 2.0 mi North 11.5 mph - 0.12 in Rain , Thunderstorm Heavy Thunderstorms and Rain
1:14 AM 41.0 °F 35.2 °F 37.4 °F 87% 29.73 in 5.0 mi NNE 9.2 mph - 0.18 in Rain , Thunderstorm Light Thunderstorms and Rain
1:26 AM 41.0 °F 35.2 °F 37.4 °F 87% 29.72 in 2.0 mi NE 9.2 mph - 0.31 in Rain , Thunderstorm Heavy Thunderstorms and Rain
1:33 AM 41.0 °F 34.3 °F 39.2 °F 93% 29.71 in 1.8 mi NE 11.5 mph - 0.37 in Rain , Thunderstorm Heavy Thunderstorms and Rain
1:43 AM 41.0 °F 36.4 °F 39.2 °F 93% 29.70 in 2.0 mi NE 6.9 mph - 0.61 in Rain , Thunderstorm Light Thunderstorms and Rain
1:51 AM 41.0 °F 35.8 °F 37.4 °F 87% 29.71 in 8.0 mi NNE 8.1 mph - 0.62 in Rain , Thunderstorm Light Thunderstorms and Rain
1:53 AM 41.0 °F 35.8 °F 37.9 °F 89% 29.73 in 10.0 mi NNE 8.1 mph - 0.62 in Rain , Thunderstorm Light Thunderstorms and Rain
2:06 AM 41.0 °F 35.8 °F 37.4 °F 87% 29.70 in 10.0 mi NNE 8.1 mph - 0.00 in Thunderstorm Overcast
2:11 AM 41.0 °F 35.2 °F 37.4 °F 87% 29.70 in 10.0 mi NNE 9.2 mph - 0.00 in Thunderstorm Overcast
2:27 AM 42.8 °F 38.0 °F 37.4 °F 81% 29.70 in 10.0 mi NNE 8.1 mph - 0.00 in   Overcast
2:53 AM 42.1 °F 39.2 °F 37.9 °F 85% 29.72 in 10.0 mi NNE 4.6 mph - 0.00 in   Overcast
3:53 AM 42.1 °F - 39.0 °F 89% 29.70 in 10.0 mi Calm Calm - N/A   Overcast
4:00 AM 42.8 °F - 37.4 °F 81% 29.69 in 10.0 mi Calm Calm - N/A   Overcast
4:09 AM 42.8 °F - 39.2 °F 87% 29.68 in 10.0 mi Calm Calm - N/A   Overcast
4:44 AM 42.8 °F 40.1 °F 39.2 °F 87% 29.69 in 10.0 mi WSW 4.6 mph - N/A   Overcast
4:53 AM 42.1 °F - 39.0 °F 89% 29.69 in 10.0 mi Calm Calm - N/A   Overcast
5:29 AM 42.8 °F 38.6 °F 39.2 °F 87% 29.69 in 10.0 mi WNW 6.9 mph - N/A   Overcast
5:53 AM 43.0 °F 40.3 °F 39.9 °F 89% 29.72 in 10.0 mi WSW 4.6 mph - N/A   Overcast
6:19 AM 42.8 °F 40.1 °F 39.2 °F 87% 29.72 in 10.0 mi West 4.6 mph - N/A   Overcast
6:53 AM 43.0 °F 39.5 °F 39.9 °F 89% 29.73 in 10.0 mi WNW 5.8 mph - N/A   Overcast
7:53 AM 43.0 °F 39.5 °F 39.9 °F 89% 29.73 in 10.0 mi WNW 5.8 mph - N/A   Overcast
8:53 AM 46.0 °F 43.1 °F 42.1 °F 86% 29.75 in 10.0 mi WSW 5.8 mph - N/A   Overcast
9:16 AM 46.4 °F 42.4 °F 42.8 °F 87% 29.74 in 10.0 mi West 8.1 mph - N/A   Unknown
9:46 AM 46.4 °F 41.9 °F 42.8 °F 87% 29.76 in 10.0 mi WNW 9.2 mph - N/A   Overcast
9:53 AM 46.9 °F - 41.0 °F 80% 29.77 in 10.0 mi WNW 8.1 mph - N/A   Overcast
10:53 AM 48.9 °F - 42.1 °F 77% 29.82 in 10.0 mi WNW 15.0 mph 19.6 mph N/A   Overcast
11:53 AM 50.0 °F - 42.1 °F 74% 29.80 in 10.0 mi WNW 6.9 mph - N/A   Overcast
12:53 PM 51.1 °F - 42.1 °F 71% 29.80 in 10.0 mi NNW 6.9 mph - N/A   Overcast
1:53 PM 53.1 °F - 43.0 °F 69% 29.81 in 10.0 mi WNW 11.5 mph - N/A   Overcast
2:53 PM 52.0 °F - 42.1 °F 69% 29.82 in 10.0 mi NW 15.0 mph - N/A   Overcast
3:53 PM 51.1 °F - 39.9 °F 66% 29.84 in 10.0 mi NW 12.7 mph 21.9 mph N/A   Overcast
4:53 PM 53.1 °F - 39.9 °F 61% 29.85 in 10.0 mi NW 16.1 mph 23.0 mph N/A   Partly Cloudy
5:53 PM 55.0 °F - 39.0 °F 55% 29.86 in 10.0 mi WNW 8.1 mph - N/A   Clear
6:53 PM 53.1 °F - 36.0 °F 52% 29.89 in 10.0 mi NW 12.7 mph - N/A   Clear
7:53 PM 50.0 °F - 34.0 °F 54% 29.93 in 10.0 mi WNW 4.6 mph - N/A   Clear
8:53 PM 45.0 °F 43.5 °F 35.1 °F 68% 29.95 in 10.0 mi WSW 3.5 mph - N/A   Clear
9:53 PM 44.1 °F 41.5 °F 35.1 °F 71% 29.98 in 10.0 mi SW 4.6 mph - N/A   Clear
10:53 PM 44.1 °F 42.5 °F 34.0 °F 68% 30.00 in 10.0 mi West 3.5 mph - N/A   Clear
11:53 PM 43.0 °F 41.3 °F 35.1 °F 74% 30.03 in 10.0 mi West 3.5 mph - N/A   Clear